| time (UTC) | temp F | wind direction | speed MPH | gust MPH | rain 1hr in | rain 24hr in | rain mn in | humidity % | barometer mb |
| 20260505054621 | 52 | 24 | 3.0 | 3.0 | 0.00 | 0.00 | 0.00 | 57 | 1009.1 |
| 20260505054121 | 52 | 26 | 3.0 | 3.0 | 0.01 | 0.00 | 0.00 | 56 | 1009.1 |
| 20260505053621 | 52 | 24 | 3.0 | 3.0 | 0.02 | 0.00 | 0.00 | 56 | 1009.1 |
| 20260505052621 | 52 | 26 | 3.0 | 3.0 | 0.02 | 0.00 | 0.00 | 56 | 1008.8 |
| 20260505051621 | 52 | 29 | 3.0 | 3.0 | 0.02 | 0.00 | 0.00 | 55 | 1009.1 |
| 20260505050621 | 53 | 21 | 3.0 | 3.0 | 0.01 | 0.00 | 0.01 | 56 | 1009.1 |
| 20260505050121 | 53 | 21 | 3.0 | 3.0 | 0.01 | 0.00 | 0.01 | 56 | 1009.1 |
| 20260505041121 | 56 | 34 | 3.0 | 3.0 | 0.00 | 0.00 | 0.00 | 41 | 1009.1 |
| 20260505034121 | 57 | 30 | 4.0 | 4.0 | 0.00 | 0.00 | 0.00 | 43 | 1008.8 |
| 20260505033621 | 57 | 33 | 4.0 | 4.0 | 0.00 | 0.00 | 0.00 | 42 | 1008.1 |
| 20260505031121 | 57 | 24 | 4.0 | 4.0 | 0.00 | 0.00 | 0.00 | 41 | 1008.1 |
| 20260505030121 | 57 | 24 | 4.0 | 4.0 | 0.00 | 0.00 | 0.00 | 42 | 1008.1 |
| 20260505025121 | 57 | 32 | 4.0 | 4.0 | 0.00 | 0.00 | 0.00 | 42 | 1008.1 |
| 20260505024121 | 58 | 30 | 5.0 | 5.0 | 0.00 | 0.00 | 0.00 | 41 | 1007.5 |
| 20260505022621 | 58 | 33 | 5.0 | 5.0 | 0.00 | 0.00 | 0.00 | 42 | 1007.1 |
| 20260505022121 | 58 | 37 | 5.0 | 5.0 | 0.00 | 0.00 | 0.00 | 41 | 1007.1 |
| 20260505021121 | 59 | 38 | 5.0 | 5.0 | 0.00 | 0.00 | 0.00 | 42 | 1006.8 |
| 20260505020621 | 59 | 38 | 5.0 | 5.0 | 0.00 | 0.00 | 0.00 | 42 | 1007.1 |
| 20260505015621 | 60 | 37 | 5.0 | 5.0 | 0.00 | 0.00 | 0.00 | 40 | 1006.4 |
| 20260505014621 | 61 | 28 | 5.0 | 5.0 | 0.00 | 0.00 | 0.00 | 39 | 1006.4 |
| 20260505013621 | 62 | 32 | 5.0 | 5.0 | 0.00 | 0.00 | 0.00 | 38 | 1006.1 |
| 20260505013121 | 62 | 34 | 5.0 | 5.0 | 0.00 | 0.00 | 0.00 | 38 | 1006.1 |
| 20260505012121 | 62 | 36 | 5.0 | 5.0 | 0.00 | 0.00 | 0.00 | 36 | 1006.1 |
| 20260505011121 | 64 | 41 | 5.0 | 5.0 | 0.00 | 0.00 | 0.00 | 35 | 1005.8 |
| 20260505010121 | 65 | 27 | 5.0 | 5.0 | 0.00 | 0.00 | 0.00 | 34 | 1005.4 |
| 20260505005121 | 65 | 33 | 6.0 | 6.0 | 0.00 | 0.00 | 0.00 | 34 | 1005.1 |
| 20260505004621 | 66 | 28 | 5.0 | 5.0 | 0.00 | 0.00 | 0.00 | 33 | 1005.4 |
| 20260505003621 | 67 | 34 | 5.0 | 5.0 | 0.00 | 0.00 | 0.00 | 32 | 1005.1 |
| 20260505003121 | 68 | 24 | 5.0 | 5.0 | 0.00 | 0.00 | 0.00 | 33 | 1005.1 |
| 20260505002121 | 69 | 35 | 5.0 | 5.0 | 0.00 | 0.00 | 0.00 | 33 | 1004.7 |
| 20260505000621 | 69 | 20 | 5.0 | 5.0 | 0.00 | 0.00 | 0.00 | 32 | 1004.7 |
| 20260505000121 | 69 | 20 | 5.0 | 5.0 | 0.00 | 0.00 | 0.00 | 32 | 1004.7 |
| 20260504233621 | 71 | 15 | 5.0 | 5.0 | 0.00 | 0.00 | 0.00 | 32 | 1004.4 |
| 20260504232121 | 71 | 22 | 5.0 | 5.0 | 0.00 | 0.00 | 0.00 | 32 | 1004.1 |
| 20260504231621 | 72 | 33 | 5.0 | 5.0 | 0.00 | 0.00 | 0.00 | 30 | 1004.1 |
| 20260504231121 | 72 | 30 | 5.0 | 5.0 | 0.00 | 0.00 | 0.00 | 31 | 1004.1 |
| 20260504230137 | 73 | 26 | 4.0 | 4.0 | 0.00 | 0.00 | 0.00 | 31 | 1003.7 |